When you browse on this site, cookies collect data to enhance your experience and personalize the content and advertising you see.
Visit our Privacy Policy to learn more. By continuing to use the site, you agree to this use of cookies and data.
  • En España
  • Lista de países
  • Para 7 días
  • Temperatura del agua
  • Mapa Satelital
  • El tiempo en el mapa
  • Informadores
  • user-avatar
    Iniciar sesión

    Tiempo cada hora Tarija

    Hoy, 20 Noviembre, Martes

    Tiempo Temperatura Precipitaciones Viento Presión Humedad
    00:00 +18°C° 0 mm 1 mps 597 mmHg 92%
    01:00 +18°C° 0 mm 1 mps 597 mmHg 92%
    02:00 +18°C° 0 mm 1 mps 596 mmHg 94%
    03:00 +18°C° 0 mm 1 mps 596 mmHg 94%
    04:00 +18°C° 0 mm 1 mps 596 mmHg 93%
    05:00 +18°C° 0 mm 1 mps 597 mmHg 93%
    06:00 +18°C° 0 mm 1 mps 597 mmHg 89%
    07:00 +19°C° 0 mm 1 mps 597 mmHg 85%
    08:00 +20°C° 0 mm 1 mps 598 mmHg 80%
    09:00 +20°C° 0 mm 2 mps 598 mmHg 75%
    10:00 +21°C° 0 mm 2 mps 598 mmHg 69%
    11:00 +24°C° 0 mm 3 mps 599 mmHg 63%
    12:00 +24°C° 0.1 mm 3 mps 598 mmHg 65%
    13:00 +24°C° 0.1 mm 3 mps 598 mmHg 66%
    14:00 +24°C° 0.1 mm 3 mps 597 mmHg 68%
    15:00 +22°C° 0.1 mm 3 mps 597 mmHg 71%
    16:00 +21°C° 0.1 mm 3 mps 596 mmHg 74%
    17:00 +21°C° 0.1 mm 3 mps 596 mmHg 77%
    18:00 +20°C° 0.1 mm 2 mps 596 mmHg 79%
    19:00 +20°C° 0.1 mm 2 mps 597 mmHg 82%
    20:00 +19°C° 0.1 mm 2 mps 597 mmHg 84%
    21:00 +19°C° 0.1 mm 2 mps 597 mmHg 85%
    22:00 +18°C° 0.1 mm 2 mps 598 mmHg 87%
    23:00 +19°C° 0.1 mm 1 mps 598 mmHg 88%

    Mañana, 21 Noviembre, Miércoles

    Tiempo Temperatura Precipitaciones Viento Presión Humedad
    00:00 +19°C° 0 mm 1 mps 598 mmHg 89%
    01:00 +19°C° 0 mm 1 mps 598 mmHg 90%
    02:00 +18°C° 0 mm 1 mps 597 mmHg 90%
    03:00 +18°C° 0 mm 1 mps 597 mmHg 91%
    04:00 +18°C° 0 mm 1 mps 597 mmHg 91%
    05:00 +18°C° 0 mm 1 mps 597 mmHg 91%
    06:00 +19°C° 0 mm 1 mps 597 mmHg 83%
    07:00 +20°C° 0 mm 1 mps 598 mmHg 76%
    08:00 +22°C° 0 mm 1 mps 599 mmHg 68%
    09:00 +23°C° 0 mm 1 mps 599 mmHg 63%
    10:00 +25°C° 0 mm 2 mps 599 mmHg 57%
    11:00 +27°C° 0 mm 3 mps 600 mmHg 51%
    12:00 +27°C° 0.1 mm 3 mps 599 mmHg 53%
    13:00 +26°C° 0.1 mm 4 mps 598 mmHg 55%
    14:00 +26°C° 0.1 mm 4 mps 597 mmHg 57%
    15:00 +26°C° 0.1 mm 4 mps 596 mmHg 62%
    16:00 +25°C° 0.1 mm 3 mps 596 mmHg 67%
    17:00 +24°C° 0.1 mm 3 mps 595 mmHg 72%
    18:00 +22°C° 0.2 mm 3 mps 595 mmHg 76%
    19:00 +21°C° 0.2 mm 3 mps 595 mmHg 81%
    20:00 +20°C° 0.2 mm 2 mps 596 mmHg 86%
    21:00 +20°C° 0.2 mm 2 mps 596 mmHg 88%
    22:00 +20°C° 0.2 mm 2 mps 596 mmHg 89%
    23:00 +19°C° 0.2 mm 2 mps 597 mmHg 91%

    Pasado mañana, 22 Noviembre, Jueves

    Tiempo Temperatura Precipitaciones Viento Presión Humedad
    00:00 +19°C° 0.1 mm 2 mps 596 mmHg 91%
    01:00 +19°C° 0.1 mm 2 mps 596 mmHg 91%
    02:00 +19°C° 0.1 mm 2 mps 595 mmHg 91%
    03:00 +19°C° 0.1 mm 2 mps 595 mmHg 91%
    04:00 +18°C° 0.1 mm 2 mps 594 mmHg 91%
    05:00 +18°C° 0.1 mm 2 mps 594 mmHg 91%
    06:00 +20°C° 0 mm 2 mps 595 mmHg 82%
    07:00 +22°C° 0 mm 1 mps 596 mmHg 74%
    08:00 +24°C° 0 mm 1 mps 597 mmHg 65%
    09:00 +25°C° 0.1 mm 2 mps 597 mmHg 59%
    10:00 +27°C° 0.1 mm 2 mps 597 mmHg 53%
    11:00 +28°C° 0.1 mm 2 mps 597 mmHg 48%
    12:00 +28°C° 1.4 mm 3 mps 597 mmHg 50%
    13:00 +28°C° 1.4 mm 3 mps 596 mmHg 53%
    14:00 +28°C° 1.4 mm 4 mps 595 mmHg 56%
    15:00 +27°C° 2.4 mm 4 mps 594 mmHg 61%
    16:00 +26°C° 2.4 mm 4 mps 594 mmHg 67%
    17:00 +23°C° 2.4 mm 4 mps 593 mmHg 72%
    18:00 +22°C° 1.7 mm 3 mps 593 mmHg 77%
    19:00 +21°C° 1.7 mm 2 mps 594 mmHg 82%
    20:00 +20°C° 1.7 mm 2 mps 594 mmHg 87%
    21:00 +20°C° 0.3 mm 2 mps 594 mmHg 88%
    22:00 +21°C° 0.3 mm 1 mps 595 mmHg 88%
    23:00 +21°C° 0.3 mm 1 mps 595 mmHg 88%

    23 Noviembre, Viernes

    Tiempo Temperatura Precipitaciones Viento Presión Humedad
    00:00 +20°C° 0.9 mm 1 mps 595 mmHg 89%
    01:00 +20°C° 0.9 mm 1 mps 594 mmHg 89%
    02:00 +20°C° 0.9 mm 1 mps 594 mmHg 90%
    03:00 +19°C° 1.6 mm 2 mps 594 mmHg 91%
    04:00 +18°C° 1.6 mm 2 mps 594 mmHg 92%
    05:00 +18°C° 1.6 mm 3 mps 594 mmHg 93%
    06:00 +18°C° 1.4 mm 3 mps 595 mmHg 92%
    07:00 +18°C° 1.4 mm 3 mps 596 mmHg 91%
    08:00 +17°C° 1.4 mm 3 mps 596 mmHg 91%
    09:00 +18°C° 0.2 mm 3 mps 596 mmHg 85%
    10:00 +20°C° 0.2 mm 3 mps 597 mmHg 79%
    11:00 +21°C° 0.2 mm 3 mps 597 mmHg 73%
    12:00 +22°C° 0.4 mm 4 mps 597 mmHg 69%
    13:00 +23°C° 0.4 mm 4 mps 596 mmHg 64%
    14:00 +25°C° 0.4 mm 4 mps 596 mmHg 60%
    15:00 +23°C° 0.6 mm 4 mps 596 mmHg 65%
    16:00 +22°C° 0.6 mm 4 mps 595 mmHg 71%
    17:00 +21°C° 0.6 mm 4 mps 595 mmHg 77%
    18:00 +20°C° 0.7 mm 4 mps 595 mmHg 82%
    19:00 +19°C° 0.7 mm 3 mps 596 mmHg 86%
    20:00 +18°C° 0.7 mm 3 mps 596 mmHg 91%
    21:00 +18°C° 0.9 mm 3 mps 596 mmHg 92%
    22:00 +18°C° 0.9 mm 2 mps 597 mmHg 92%
    23:00 +18°C° 0.9 mm 2 mps 597 mmHg 93%

    24 Noviembre, Sábado

    Tiempo Temperatura Precipitaciones Viento Presión Humedad
    00:00 +17°C° 1.6 mm 2 mps 597 mmHg 93%
    01:00 +17°C° 1.6 mm 2 mps 596 mmHg 93%
    02:00 +17°C° 1.6 mm 2 mps 596 mmHg 93%
    03:00 +17°C° 0.4 mm 2 mps 596 mmHg 93%
    04:00 +17°C° 0.4 mm 2 mps 596 mmHg 93%
    05:00 +16°C° 0.4 mm 2 mps 596 mmHg 92%
    06:00 +17°C° 0.1 mm 2 mps 596 mmHg 91%
    07:00 +17°C° 0.1 mm 2 mps 597 mmHg 89%
    08:00 +18°C° 0.1 mm 2 mps 598 mmHg 87%
    09:00 +19°C° 0.1 mm 2 mps 598 mmHg 80%
    10:00 +20°C° 0.1 mm 2 mps 598 mmHg 74%
    11:00 +22°C° 0.1 mm 3 mps 598 mmHg 67%
    12:00 +22°C° 0.1 mm 3 mps 598 mmHg 64%
    13:00 +23°C° 0.1 mm 4 mps 598 mmHg 60%
    14:00 +25°C° 0.1 mm 4 mps 597 mmHg 56%
    15:00 +23°C° 0.1 mm 4 mps 597 mmHg 59%
    16:00 +22°C° 0.1 mm 4 mps 596 mmHg 62%
    17:00 +22°C° 0.1 mm 4 mps 596 mmHg 65%
    18:00 +21°C° 0.1 mm 4 mps 596 mmHg 71%
    19:00 +19°C° 0.1 mm 3 mps 596 mmHg 78%
    20:00 +18°C° 0.1 mm 3 mps 597 mmHg 84%
    21:00 +18°C° 0.2 mm 2 mps 597 mmHg 86%
    22:00 +17°C° 0.2 mm 2 mps 597 mmHg 89%
    23:00 +17°C° 0.2 mm 2 mps 597 mmHg 91%

    25 Noviembre, Domingo

    Tiempo Temperatura Precipitaciones Viento Presión Humedad
    00:00 +17°C° 0.2 mm 2 mps 597 mmHg 91%
    01:00 +17°C° 0.2 mm 2 mps 596 mmHg 91%
    02:00 +16°C° 0.2 mm 1 mps 596 mmHg 92%
    03:00 +16°C° 0.1 mm 1 mps 596 mmHg 92%
    04:00 +16°C° 0.1 mm 1 mps 596 mmHg 92%
    05:00 +16°C° 0.1 mm 1 mps 596 mmHg 92%
    06:00 +18°C° 0 mm 1 mps 596 mmHg 89%
    07:00 +19°C° 0 mm 1 mps 597 mmHg 85%
    08:00 +19°C° 0 mm 1 mps 598 mmHg 81%
    09:00 +21°C° 0 mm 1 mps 598 mmHg 76%
    10:00 +21°C° 0 mm 2 mps 598 mmHg 71%
    11:00 +23°C° 0 mm 2 mps 598 mmHg 65%
    12:00 +22°C° 0.2 mm 3 mps 597 mmHg 67%
    13:00 +22°C° 0.2 mm 3 mps 596 mmHg 69%
    14:00 +22°C° 0.2 mm 3 mps 596 mmHg 70%
    15:00 +21°C° 0.5 mm 3 mps 595 mmHg 74%
    16:00 +21°C° 0.5 mm 3 mps 595 mmHg 78%
    17:00 +20°C° 0.5 mm 3 mps 594 mmHg 82%
    18:00 +19°C° 0.9 mm 3 mps 595 mmHg 85%
    19:00 +19°C° 0.9 mm 2 mps 595 mmHg 87%
    20:00 +18°C° 0.9 mm 2 mps 596 mmHg 90%
    21:00 +18°C° 3 mm 2 mps 596 mmHg 91%
    22:00 +18°C° 3 mm 2 mps 596 mmHg 92%
    23:00 +18°C° 3 mm 2 mps 596 mmHg 93%
    Mostrar más